Rick Husband Amarillo International Airport
KAMA : now visible

Airfield :











YOU CAN JOIN US ON...

 
LOGIN :

Register | Disclaimer

   EN    FR    IT 

 









Legend :    VFR   Marginal VFR   IFR   Intensive IFR   Very Intensive IFR
Visi :
Ceiling :
>= 8 km
>= 3000ft
5 to 8 km
1000 to 3000 ft
1500m to 5 km
500 to 1000 ft
800 to 1500m
200 to 500 ft
< 800m
< 200 ft
Symbols :   Thunderstorms  Fog  Heavy snow  Heavy precipitations  Wind > 20 kt






- Airport Elevation : 3607 ft
- IATA code : AMA


KAMA - Rick Husband Amarillo International

CURRENT METAR :
  • 111153Z 15010KT 10SM CLR 20/14 A3002 RMK AO2 SLP102 T02000144 10244 20194 51002

EXPIRED METARs :
  • 111053Z 15012KT 10SM CLR 21/14 A3001 RMK AO2 SLP098 T02060139
  • 110953Z AUTO 13009KT 10SM CLR 20/14 A3002 RMK AO2 SLP103 T02000144

TAF KAMA
Valid from the 11 at 12:00 until the 12 at 12:00 UTC


111133Z 1112/1212 15011KT P6SM SCT120
FM111900 15012KT P6SM SCT080 SCT300
FM120400 17011KT P6SM SCT300
KZAB FIR / North America



MET'MAP, your aeronautical weather chart ! - Copyright ORBIFLY December 2007 - Disclaimer

ORBIFLY MET'MAP TEAM :

Programming & Development : Alexandra Zaïnal
Concept & original design : Baudouin d'Aumeries
Assistance for programming : Marc-Olivier Méhu
Technical & hardware support : Manuel Goepfert

Contact : metmap@orbifly.com




SOURCES & CREDITS :

   NOAA       Earth
Advisory